Tracking 19254 objects as of 20-Oct-2018
HD Live streaming from Space Station
objects crossing your sky now

INTELSAT 505

Track INTELSAT 505 now!
INTELSAT 505 is classified as:


NORAD ID: 13595
Int'l Code: 1982-097A
Perigee: 36,229.4 km
Apogee: 36,419.1 km
Inclination: 15.2 °
Period: 1,463.3 minutes
Semi major axis: 42695 km
RCS: 0.1428 m2 (medium)
Launch date: September 28, 1982
Source: International Telecommunications Satellite Organization (ITSO)
Launch site: AIR FORCE EASTERN TEST RANGE (AFETR)
aabbcc
Your satellite tracking list
Your tracking list is empty




NASA's NSSDC Master Catalog

Two Line Element Set (TLE):
1 13595U 82097A   18292.48857632 -.00000239  00000-0  00000+0 0  9998
2 13595  15.1659 353.5946 0022217 326.0001  43.1770  0.98408720100565
Source of the keplerian elements: AFSPC